Regional Weather Roundup
Issued by NWS Upton, NY

Current Version | Previous Version | Text Only | Print | Product List | Glossary On
Versions: 1 2 3 4 5 6 7 8 9 10 11 12 13 14 15 16 17 18 19 20 21 22 23 24 25 26 27 28 29 30 31 32 33 34 35 36 37 38 39 40 41 42 43 44 45 46 47 48 49 50
000 ASUS41 KOKX 110404 RWROKX REGIONAL WEATHER ROUNDUP NATIONAL WEATHER SERVICE NEW YORK NY 1100 PM EST WED FEB 10 2016 NOTE: "FAIR" INDICATES FEW OR NO CLOUDS BELOW 12,000 FEET WITH NO SIGNIFICANT WEATHER AND/OR OBSTRUCTIONS TO VISIBILITY. NYZ071-072-176-178-NJZ106-104-110500- NEW YORK CITY METRO AREA CITY SKY/WX TMP DP RH WIND PRES REMARKS CENTRAL PARK CLOUDY 31 15 52 W7G20 29.77R WCI 24 LAGUARDIA APRT CLOUDY 32 15 49 W15G25 29.75R WCI 22 KENNEDY INTL MOCLDY 32 15 49 W15 29.77R WCI 22 NEWARK/LIBERTY CLOUDY 31 15 52 W16G25 29.76R WCI 20 BRNX BOT. GARD N/A 32 16 51 W9 29.76R WCI 24 TETERBORO CLOUDY 31 15 52 W9 29.75R WCI 23 $$ NYZ177-179-078>081-110500- LONG ISLAND NEW YORK CITY SKY/WX TMP DP RH WIND PRES REMARKS FARMINGDALE MOCLDY 32 17 54 W10 29.74R WCI 24 ISLIP PTCLDY 30 17 58 W9 29.71R WCI 22 SHIRLEY CLEAR 30 18 60 W8 29.73R WCI 22 RIVERHEAD N/A 32 18 55 NW6 29.69S WCI 26 WESTHAMPTON CLEAR 28 18 66 W8 29.73R WCI 20 EAST HAMPTON FAIR 29 20 68 W7 29.70S WCI 22 MONTAUK POINT N/A 36 23 59 W10G21 29.70R WCI 28 $$ NYZ052-065-067-110500- HUDSON VALLEY CITY SKY/WX TMP DP RH WIND PRES REMARKS WHITE PLAINS MOCLDY 31 17 56 W8 29.70R WCI 23 NEWBURGH CLOUDY 30 21 69 NW12G17 29.71R WCI 21 MONTGOMERY CLOUDY 31 16 54 NW7 29.71R WCI 24 POUGHKEEPSIE CLOUDY 33 18 53 NW8 29.70S WCI 26 ALBANY MOCLDY 27 14 58 SW6 29.70R WCI 20 $$ NJZ001-105-106-008-010-013-015-019>022-104-110500- NEW JERSEY CITY SKY/WX TMP DP RH WIND PRES REMARKS NEWARK/LIBERTY CLOUDY 31 15 52 W16G25 29.76R WCI 20 TETERBORO CLOUDY 31 15 52 W9 29.75R WCI 23 CALDWELL CLOUDY 31 14 49 W10G16 29.76R WCI 22 MORRISTOWN CLOUDY 30 14 51 W10G20 29.76S WCI 21 SOMERVILLE CLOUDY 29 14 53 W8 29.77R WCI 21 SUSSEX CLOUDY 30 16 56 W3 29.73R ANDOVER N/A 27 14 58 W9 29.74R WCI 18 TRENTON CLOUDY 29 13 51 W9G21 29.79S WCI 20 MILLVILLE CLOUDY 29 15 56 W17G24 29.85R WCI 17 ATLANTIC CITY CLOUDY 30 15 53 W12 29.82R WCI 20 WRIGHTSTOWN CLOUDY 29 15 55 NW15G21 29.77S WCI 18 TOMS RIVER CLOUDY 30 12 47 W18 29.79S WCI 18 BELMAR CLOUDY 30 10 43 W14G21 29.77R WCI 20 $$ PAZ047>061-062-071-110500- EASTERN PENNSYLVANIA CITY SKY/WX TMP DP RH WIND PRES REMARKS PHILADELPHIA CLOUDY 29 10 45 W20G31 29.85R WCI 16 ALLENTOWN LGT SNOW 25 15 66 W10 29.81R FOG WCI 15 SCRANTON LGT SNOW 21 18 88 W8 29.75R VSB 3/4 WCI 11 $$ CTZ002-004>006-009-010-012-RIZ004-006-007-MAZ004-011-015-110500- SOUTHERN NEW ENGLAND IN CT CITY SKY/WX TMP DP RH WIND PRES REMARKS BRADLEY INTL PTCLDY 29 16 58 W14 29.68R WCI 18 HARTFORD PTCLDY 30 21 69 NW3 29.69S DANBURY MOCLDY 29 17 61 W6 29.70R WCI 23 WTRBRY/OXFORD CLEAR 28 12 50 NW5 29.68R WCI 23 BRIDGEPORT PTCLDY 31 21 66 W5 29.72R WCI 26 MERIDEN CLEAR 21 16 81 CALM 29.70R NEW HAVEN CLEAR 32 21 64 W5 29.70R WCI 27 CHESTER FAIR 30 19 64 W5 29.68R WCI 25 GROTON CLEAR 29 22 75 NW7 29.69R WCI 22 WILLIMANTIC CLEAR 27 23 85 SW3 29.69R IN RI CITY SKY/WX TMP DP RH WIND PRES REMARKS PROVIDENCE MOCLDY 32 20 61 W8 29.68R WCI 25 BLOCK ISLAND MOCLDY 36 21 55 NW9G17 29.67R WCI 29 WESTERLY CLOUDY 28 23 81 CALM 29.69R IN MA CITY SKY/WX TMP DP RH WIND PRES REMARKS BOSTON PTCLDY 32 22 66 W10 29.64R WCI 24 WORCESTER PTCLDY 25 19 78 W12 29.61R WCI 14 WESTFIELD CLEAR 28 16 60 W7 29.68R WCI 21 PROVINCETOWN CLEAR 34 26 72 W16 29.64S WCI 24 NANTUCKET CLOUDY 36 30 79 W7 29.66R WCI 30 $$ ANZ330-335-338-340-345-350-353-355-110500- COASTAL MARINE OBSERVATIONS STATION/POSITION TIME SKY/WX TEMP WIND PRES VSBY WAVE AIR SEA DIR/SP/G HT/PER (UTC) (F) (DEG/KT/KT) (MB) (MI) (FT/S) NY HARB ENTRANCE 0250 34 43 280/ 21/ 27 1006.4 5/ 4 4S FIRE IS NOT AVBL 20S FIRE ISLAND 0250 35 44 280/ 23/ 27 1006.4 7/ 6 GREAT SOUTH BAY NOT AVBL 23SW MTP 0350 37 45 280/ 19/ 23 1005.3 8/11 HUDSON CANYON 0250 37 48 1007.3 8/ 7 KINGS POINT 0300 33 38 1006.3 EXECUTION ROCKS NOT AVBL CENTRAL LI SOUND NOT AVBL EASTERN LI SOUND 0300 37 41 290/ 16/ 21 N/A ROBBINS REEF 0300 31 1006.6 $$ >>>>>>>>>>>>>>>>>>>>>>>>>>>> KEY <<<<<<<<<<<<<<<<<<<<<<<<<<< > < > SKY/WX - SKY CONDITION/PRESENT WEATHER < > TMP - TEMPERATURE IN FAHRENHEIT < > DP - DEWPOINT IN FAHRENHEIT < > RH - RELATIVE HUMIDITY IN PERCENT < > WIND - DIRECTION AND SPEED IN MPH < > PRES - MEAN SEA LEVEL PRESSURE IN INCHES OF HG < > WCI - WIND CHILL INDEX < > VSB - VISIBILITY IN MILES < > HX - HEAT INDEX < > TC - TEMPERATURE IN CELSIUS < > VRB - VARIABLE WIND DIRECTION < > < >>>>>>>>>>>>>>>>>>>>>>>>>>>> KEY <<<<<<<<<<<<<<<<<<<<<<<<<<<

USA.gov is the U.S. government's official web portal to all federal, state and local government web resources and services.